Location: Newark
(52.9300°N, 3.3400°W)
Time: 13:07:13
(UTC+00:00)

N. Korean satellite - Visible Passes

Search period start: 08 March 2021 00:00
Search period end: 18 March 2021 00:00
Orbit: 451 x 502 km, 97.2° (Epoch: 07 March)

Date Brightness Start Highest point End Pass type
(mag) Time Alt. Az. Time Alt. Az. Time Alt. Az.
08 Mar 9.7 04:44:24 10° NE 04:46:44 16° E 04:49:04 10° SE visible
09 Mar 6.7 05:49:58 10° NNE 05:53:34 81° ESE 05:57:11 10° SSW visible
10 Mar 8.0 05:23:18 10° NNE 05:26:43 40° E 05:30:09 10° S visible
11 Mar 9.3 04:56:55 10° NE 04:59:46 22° E 05:02:39 10° SE visible
12 Mar 10.0 04:31:13 10° ENE 04:32:44 12° E 04:34:15 10° ESE visible
13 Mar 7.3 05:36:05 10° NNE 05:39:39 57° E 05:43:15 10° S visible
14 Mar 8.8 05:09:31 10° NNE 05:12:44 29° E 05:15:59 10° SSE visible
15 Mar 9.7 04:43:21 10° NE 04:45:43 16° E 04:48:07 10° SE visible
16 Mar 6.8 05:48:53 10° NNE 05:52:31 80° ESE 05:56:12 10° S visible
17 Mar 8.1 05:22:10 10° NNE 05:25:38 40° E 05:29:07 10° S visible
